Location: Darmstadt
(49.8706°N, 8.6494°E)
Time: 07:22:28
(UTC+01:00)

Cosmos 1825 - Pass Details

Date: 31 October 2020
Orbit: 501 x 508 km, 82.5° (Epoch: 03 December)

Event Time Altitude Azimuth Distance (km) Brightness Sun altitude
Rises 19:07:39 0° 346° (NNW) 2,627 6.0 -20.4°
Reaches altitude 10° 19:09:49 10° 342° (NNW) 1,735 5.1 -20.7°
Maximum altitude 19:13:32 54° 265° (W) 625 2.9 -21.3°
Drops below altitude 10° 19:17:12 10° 187° (S) 1,715 4.9 -21.9°
Sets 19:19:20 0° 183° (S) 2,593 5.8 -22.3°
